カタログに戻る

ARIANE 44L DEB

LostHEO
NORAD 33589·DEBRIS·🇫🇷 France

打ち上げ Jan 15, 1991 から Guiana Space Centre

Loading…

次のパス (今後24時間)

TLE

古いSource: Space-Track

元期: Jun 5, 2019, 06:49 UTC

1 33589U 91003S   19156.28428763 -.00000001  00000-0  39291-2 0  9991
2 33589   7.5114   0.3168 6752729 232.4889  45.0370  2.63585777124556

AllMySatでARIANE 44L DEBをリアルタイム追跡

Download on the App Store